Flag for Australia Weather past 2 weeks in Canberra, Australian Capital Territory, Australia

Now
54 °F

Clear.


Feels Like: 52 °F
Forecast: 54 / 74 °F
Wind: 6 mph from Southeast

Location: Canberra Airport

Current Time: Dec 28, 2014 at 2:08:59 AM

Latest Report: Dec 28, 2014 at 1:30 AM


Visibility: N/A

Pressure: 30.12 "Hg

Humidity: 88%

Dew point: 50 °F

Location of CanberraLocation

Historic Weather in Canberra — Graph

°F

Canberra temperature yesterday

Maximum temperature yesterday: 72 °F (at 3:00 PM)
Minimum temperature yesterday: 54 °F (at 1:00 AM)
Average temperature yesterday: 62 °F

Past Weeks' High & Low Weather Summary

 TemperatureHumidityPressure
High90 °F (Dec 16, 1:30 PM)100% (Dec 14, 5:30 AM)30.18 "Hg (Dec 14, 5:30 AM)
Low45 °F (Dec 14, 5:30 AM)10% (Dec 16, 6:00 PM)29.47 "Hg (Dec 16, 1:30 PM)
Average67 °F62%29.90 "Hg
* Reported Midnight between Dec 12 and Dec 13 — Dec 28 12:30 AM, Canberra, Weather by CustomWeather, © 2014

Note: Actual official high and low records may vary slightly from our data, if they occured in-between our weather recording intervals... More about our weather records

Advertising

Canberra weather history for previous 24 hours

 ConditionsComfort  
Time TempWeatherWind HumidityBarometerVisibility
12:30 AM
Dec 28
54 °FPassing clouds.5 mph82%30.15 "HgN/A
12:00 AM55 °FClear.6 mph77%30.15 "HgN/A
11:30 PM
Dec 27
57 °FClear.5 mph77%30.15 "HgN/A
11:00 PM57 °FClear.6 mph77%30.15 "HgN/A
10:30 PM59 °FClear.7 mph72%30.15 "HgN/A
10:00 PM59 °FClear.6 mph72%30.15 "HgN/A
9:30 PM61 °FClear.8 mph68%30.15 "HgN/A
9:00 PM61 °FClear.12 mph68%30.12 "HgN/A
8:30 PM63 °FClear.10 mph68%30.12 "HgN/A
8:00 PM64 °FSunny.12 mph60%30.12 "HgN/A
7:30 PM66 °FSunny.14 mph56%30.09 "HgN/A
7:00 PM68 °FSunny.10 mph49%30.09 "HgN/A
6:30 PM68 °FSunny.12 mph49%30.07 "HgN/A
6:00 PM70 °FScattered clouds.9 mph46%30.07 "HgN/A
5:30 PM70 °FScattered clouds.12 mph46%30.07 "HgN/A
5:00 PM70 °FScattered clouds.13 mph46%30.07 "HgN/A
4:30 PM72 °FScattered clouds.9 mph47%30.09 "HgN/A
4:00 PM70 °FScattered clouds.10 mph46%30.09 "HgN/A
3:30 PM68 °FPartly sunny.10 mph49%30.09 "HgN/A
3:00 PM72 °FScattered clouds.7 mph44%30.12 "HgN/A
2:30 PM70 °FScattered clouds.10 mph46%30.12 "HgN/A
2:00 PM70 °FScattered clouds.10 mph50%30.12 "HgN/A
1:30 PM68 °FScattered clouds.8 mph49%30.12 "HgN/A
1:00 PM68 °FScattered clouds.13 mph46%30.15 "HgN/A
12:30 PM68 °FBroken clouds.9 mph53%30.15 "HgN/A
12:00 PM66 °FPartly sunny.6 mph49%30.15 "HgN/A
11:30 AM63 °FScattered clouds.3 mph59%30.15 "HgN/A
11:00 AM63 °FBroken clouds.6 mph59%30.15 "HgN/A
10:30 AM61 °FBroken clouds.8 mph68%30.15 "HgN/A
10:00 AM61 °FBroken clouds.10 mph63%30.15 "HgN/A
9:30 AM59 °FBroken clouds.8 mph68%30.18 "HgN/A
9:00 AM59 °FBroken clouds.12 mph68%30.15 "HgN/A
8:00 AM57 °FPartly sunny.7 mph77%30.15 "HgN/A
7:30 AM55 °FPartly sunny.8 mph82%30.15 "HgN/A
7:00 AM55 °FPartly sunny.8 mph82%30.15 "HgN/A
6:30 AM54 °FPartly sunny.8 mph88%30.12 "HgN/A
6:00 AM54 °FBroken clouds.7 mph82%30.12 "HgN/A
5:30 AM54 °FPassing clouds.3 mph82%30.12 "HgN/A
5:00 AM55 °FPartly cloudy.5 mph77%30.12 "HgN/A
4:30 AM55 °FOvercast.6 mph82%30.12 "HgN/A
4:00 AM55 °FPassing clouds.3 mph77%30.12 "HgN/A
3:00 AM55 °FMostly cloudy.6 mph77%30.12 "HgN/A
2:03 AM54 °FPassing clouds.8 mph82%30.12 "HgN/A
2:00 AM54 °FPassing clouds.7 mph82%30.12 "HgN/A
Weather by CustomWeather, © 2014

See weather overviewHow to use our weather pages